Location: Krakow
(50.0830°N, 19.9170°E)
Time: 03:38:18
(UTC+02:00)

Vanguard 1 Rocket - Pass Details

Date: 11 December 2023
Orbit: 650 x 4218 km, 34.3° (Epoch: 13 October)

Event Time Altitude Azimuth Distance (km) Brightness Sun altitude
Rises 08:22:48 0° 273° (W) 7,375 11.6 5.7°
Reaches altitude 10° 08:29:41 10° 263° (W) 5,708 11.1 6.4°
Maximum altitude 08:40:37 24° 219° (SW) 3,456 10.6 7.5°
Drops below altitude 10° 08:47:40 10° 170° (S) 3,533 11.7 8.2°
Sets 08:50:43 0° 155° (SSE) 4,112 12.7 8.5°
